STARLINK-34370 (64309 NORAD) Tracking and Keplerian Element Data

This shows tracking and keplerian element data for the satellite.

Feedback or suggestion? Click here.




ElementValue
Catalog64309
NameSTARLINK-34370
Epoch Orbit2970
Epoch Day354.15177115
Epoch Year2025
RAAN35.0295
Inclination70.0021
Eccentricity0.0003121
Argument of Perigee271.0025
Mean Anonmoly89.0777
Mean Motion14.98336708
Decay Rate2.814E-05
L11 64309U 25123U 25354.15177115 .00002814 00000+0 24349-3 0 9991
L22 64309 70.0021 35.0295 0003121 271.0025 89.0777 14.98336708 29707



Live tracking and technical data element details for STARLINK-34370 (NORAD 64309). STARLINK-34370 can be tracked NOW for your location showing map with azimuth and elevation plus other details from your city location.







IsCatalogInMostPopularTable: catalog: 64309, numindb: 3
Update: records affected: 1



GetName: 64309 STARLINK-34370

Hit Count: updated at: Tue, 10 Feb 2026 02:27:15 GMT